Погода в Горняке

Россия / Алтайский край     50°59′51″N   81°27′51″E
темп.,
°C
ветер,
м/с
пор.,
м/с
влажн.,
%
обл.,
%
осадки,
мм/ч
давл.,
гПа
погр.,
м
16 мая, вс
вс1601:00+15юз11551 0.0 102111
04:00+13ююз11595 0.0 102110
07:00+14ююз12605 0.0 102112
10:00+20юз23385 0.0 1020388
13:00+24з33295 0.0 10191672
16:00+26з33280 0.0 10172407
19:00+26зюз23290 0.0 10151776
22:00+20ю45410 0.0 101560
17 мая, пн
пн1701:00+18ююз354399 0.0 101482
04:00+16ююв454967 0.0 101367
07:00+14ссз25745 0.3 1016174
10:00+20зсз23625 0.0 1016721
13:00+24сз45425 0.0 10161999
16:00+25ссз453865 0.0 10152415
19:00+23ссв554412 0.0 10151331
22:00+19св33585 0.0 101642
18 мая, вт
вт1801:00+17вюв12655 0.0 101511
04:00+16ююз116817 0.0 101511
07:00+16ю236714 0.0 101445
10:00+22юз46476 0.0 1013624
13:00+27зюз57339 0.0 10111888
16:00+29сз582599 0.0 10093547
19:00+22зюз7949100 0.6 1010708
22:00+18ю3568100 0.1 1009106
19 мая, ср
ср1901:00+17ю2272100 0.1 100828
04:00+16ююз5107798 0.6 1007222
07:00+16юз357970 0.7 1006152
10:00+20з565698 0.0 1006939
13:00+22зсз6750100 0.0 10051731
16:00+18с101167100 0.4 1006762
19:00+12ссв91076100 0.6 1010922
22:00+8св81472100 0.0 1013945
20 мая, чт
чт2001:00+7с612716 0.0 1014878
04:00+6ссв613530 0.0 1016600
07:00+5с511595 0.0 1019404
10:00+10с5103911 0.0 10191703
13:00+13с793499 0.0 10182437
16:00+14ссз6103294 0.0 10182574
19:00+14с78324 0.0 10192134
22:00+8ссв3844100 0.0 1022172